Time,TemperatureF,DewpointF,PressureIn,WindDirection,WindDirectionDegrees,WindSpeedMPH,WindSpeedGustMPH,Humidity,HourlyPrecipIn,Conditions,Clouds,dailyrainin,SoftwareType,DateUTC
2013-02-14 00:00:00,33.0,24.0,29.31,North,360,5.0,11.0,66,0.00,,,0.00,Rainwise IP-100,2013-02-14 05:00:00,
2013-02-14 00:05:00,33.0,24.0,29.31,NNE,22,5.0,10.0,67,0.00,,,0.00,Rainwise IP-100,2013-02-14 05:05:00,
2013-02-14 00:10:00,33.0,24.0,29.31,ENE,67,4.0,11.0,67,0.00,,,0.00,Rainwise IP-100,2013-02-14 05:10:00,
2013-02-14 00:15:00,33.0,24.0,29.30,NE,45,6.0,10.0,67,0.00,,,0.00,Rainwise IP-100,2013-02-14 05:15:00,
2013-02-14 00:20:00,33.0,24.0,29.30,NNE,22,3.0,11.0,67,0.00,,,0.00,Rainwise IP-100,2013-02-14 05:20:00,
2013-02-14 00:25:00,33.0,24.0,29.30,NE,45,5.0,10.0,67,0.00,,,0.00,Rainwise IP-100,2013-02-14 05:25:00,
2013-02-14 00:30:00,33.0,24.0,29.30,NE,45,4.0,11.0,67,0.00,,,0.00,Rainwise IP-100,2013-02-14 05:30:00,
2013-02-14 00:35:00,33.0,24.0,29.29,NNE,22,7.0,10.0,67,0.00,,,0.00,Rainwise IP-100,2013-02-14 05:35:00,
2013-02-14 00:40:00,33.0,24.0,29.29,NE,45,10.0,11.0,67,0.00,,,0.00,Rainwise IP-100,2013-02-14 05:40:00,
2013-02-14 00:45:00,33.0,24.0,29.29,NE,45,4.0,12.0,68,0.00,,,0.00,Rainwise IP-100,2013-02-14 05:45:00,
2013-02-14 00:50:00,33.0,24.0,29.29,NNE,22,7.0,12.0,68,0.00,,,0.00,Rainwise IP-100,2013-02-14 05:50:00,
2013-02-14 00:55:00,33.0,24.0,29.29,NNE,22,6.0,12.0,68,0.00,,,0.00,Rainwise IP-100,2013-02-14 05:55:00,
2013-02-14 01:00:00,32.0,23.0,29.29,North,360,10.0,17.0,69,0.00,,,0.00,Rainwise IP-100,2013-02-14 06:00:00,
2013-02-14 01:05:00,32.0,24.0,29.28,NE,45,8.0,16.0,70,0.00,,,0.00,Rainwise IP-100,2013-02-14 06:05:00,
2013-02-14 01:10:00,32.0,24.0,29.28,NE,45,5.0,15.0,70,0.00,,,0.00,Rainwise IP-100,2013-02-14 06:10:00,
2013-02-14 01:15:00,32.0,24.0,29.28,NE,45,9.0,14.0,70,0.00,,,0.00,Rainwise IP-100,2013-02-14 06:15:00,
2013-02-14 01:20:00,32.0,24.0,29.28,NNE,22,9.0,13.0,70,0.00,,,0.00,Rainwise IP-100,2013-02-14 06:20:00,
2013-02-14 01:25:00,32.0,24.0,29.27,NNE,22,12.0,14.0,70,0.00,,,0.00,Rainwise IP-100,2013-02-14 06:25:00,
2013-02-14 01:30:00,32.0,24.0,29.27,North,360,5.0,13.0,70,0.00,,,0.00,Rainwise IP-100,2013-02-14 06:30:00,
2013-02-14 01:35:00,32.0,24.0,29.27,NE,45,9.0,15.0,70,0.00,,,0.00,Rainwise IP-100,2013-02-14 06:35:00,
2013-02-14 01:40:00,32.0,24.0,29.27,NE,45,8.0,15.0,70,0.00,,,0.00,Rainwise IP-100,2013-02-14 06:40:00,
2013-02-14 01:45:00,32.0,24.0,29.27,NNE,22,11.0,14.0,70,0.00,,,0.00,Rainwise IP-100,2013-02-14 06:45:00,
2013-02-14 01:50:00,32.0,24.0,29.27,NE,45,7.0,11.0,70,0.00,,,0.00,Rainwise IP-100,2013-02-14 06:50:00,
2013-02-14 01:55:00,32.0,24.0,29.29,NE,45,10.0,13.0,70,0.00,,,0.00,Rainwise IP-100,2013-02-14 06:55:00,
2013-02-14 02:00:00,32.0,24.0,29.29,East,90,4.0,10.0,70,0.00,,,0.00,Rainwise IP-100,2013-02-14 07:00:00,
2013-02-14 02:05:00,32.0,24.0,29.31,NNE,22,0.0,7.0,70,0.00,,,0.00,Rainwise IP-100,2013-02-14 07:05:00,
2013-02-14 02:06:00,32.0,24.0,29.31,South,180,1.0,7.0,70,0.00,,,0.00,Rainwise IP-100,2013-02-14 07:06:00,
2013-02-14 02:10:00,32.0,24.0,29.31,ENE,67,6.0,7.0,70,0.00,,,0.00,Rainwise IP-100,2013-02-14 07:10:00,
2013-02-14 02:11:00,32.0,24.0,29.31,ENE,67,5.0,7.0,70,0.00,,,0.00,Rainwise IP-100,2013-02-14 07:11:00,
2013-02-14 02:12:00,32.0,24.0,29.31,ENE,67,5.0,7.0,70,0.00,,,0.00,Rainwise IP-100,2013-02-14 07:12:00,
2013-02-14 02:18:00,32.0,24.0,29.33,SSE,157,3.0,6.0,70,0.00,,,0.00,Rainwise IP-100,2013-02-14 07:18:00,
2013-02-14 02:19:00,32.0,24.0,29.33,SSE,157,3.0,6.0,70,0.00,,,0.00,Rainwise IP-100,2013-02-14 07:19:00,
2013-02-14 02:24:00,32.0,24.0,29.33,SE,135,4.0,6.0,70,0.00,,,0.00,Rainwise IP-100,2013-02-14 07:24:00,
2013-02-14 02:29:00,31.0,23.0,29.33,South,180,1.0,4.0,71,0.00,,,0.00,Rainwise IP-100,2013-02-14 07:29:00,
2013-02-14 02:34:00,31.0,23.0,29.33,South,180,0.0,3.0,72,0.00,,,0.00,Rainwise IP-100,2013-02-14 07:34:00,
2013-02-14 02:39:00,31.0,23.0,29.33,South,180,0.0,1.0,72,0.00,,,0.00,Rainwise IP-100,2013-02-14 07:39:00,
2013-02-14 02:44:00,31.0,23.0,29.33,North,360,2.0,4.0,72,0.00,,,0.00,Rainwise IP-100,2013-02-14 07:44:00,
2013-02-14 02:49:00,31.0,23.0,29.33,North,360,1.0,4.0,72,0.00,,,0.00,Rainwise IP-100,2013-02-14 07:49:00,
2013-02-14 02:54:00,31.0,23.0,29.33,West,270,0.0,4.0,72,0.00,,,0.00,Rainwise IP-100,2013-02-14 07:54:00,
2013-02-14 02:59:00,31.0,23.0,29.33,North,360,1.0,3.0,73,0.00,,,0.00,Rainwise IP-100,2013-02-14 07:59:00,
2013-02-14 03:04:00,30.0,23.0,29.31,NE,45,3.0,4.0,73,0.00,,,0.00,Rainwise IP-100,2013-02-14 08:04:00,
2013-02-14 03:09:00,30.0,23.0,29.31,NE,45,0.0,3.0,73,0.00,,,0.00,Rainwise IP-100,2013-02-14 08:09:00,
2013-02-14 03:14:00,31.0,23.0,29.31,NNE,22,1.0,5.0,73,0.00,,,0.00,Rainwise IP-100,2013-02-14 08:14:00,
2013-02-14 03:19:00,31.0,23.0,29.31,North,360,3.0,4.0,73,0.00,,,0.00,Rainwise IP-100,2013-02-14 08:19:00,
2013-02-14 03:24:00,31.0,23.0,29.31,North,360,2.0,7.0,72,0.00,,,0.00,Rainwise IP-100,2013-02-14 08:24:00,
2013-02-14 03:29:00,31.0,23.0,29.31,North,360,4.0,7.0,71,0.00,,,0.00,Rainwise IP-100,2013-02-14 08:29:00,
2013-02-14 03:34:00,31.0,23.0,29.31,NNE,22,3.0,5.0,71,0.00,,,0.00,Rainwise IP-100,2013-02-14 08:34:00,
2013-02-14 03:39:00,31.0,23.0,29.31,ENE,67,0.0,7.0,71,0.00,,,0.00,Rainwise IP-100,2013-02-14 08:39:00,
2013-02-14 03:44:00,31.0,23.0,29.32,NE,45,4.0,7.0,70,0.00,,,0.00,Rainwise IP-100,2013-02-14 08:44:00,
2013-02-14 03:49:00,31.0,23.0,29.32,NNE,22,5.0,5.0,70,0.00,,,0.00,Rainwise IP-100,2013-02-14 08:49:00,
2013-02-14 03:54:00,31.0,23.0,29.32,North,360,5.0,8.0,70,0.00,,,0.00,Rainwise IP-100,2013-02-14 08:54:00,
2013-02-14 03:59:00,31.0,23.0,29.32,NNE,22,5.0,7.0,70,0.00,,,0.00,Rainwise IP-100,2013-02-14 08:59:00,
2013-02-14 04:04:00,31.0,23.0,29.32,NE,45,1.0,6.0,70,0.00,,,0.00,Rainwise IP-100,2013-02-14 09:04:00,
2013-02-14 04:09:00,31.0,23.0,29.32,NNE,22,5.0,5.0,70,0.00,,,0.00,Rainwise IP-100,2013-02-14 09:09:00,
2013-02-14 04:14:00,31.0,23.0,29.32,North,360,4.0,7.0,70,0.00,,,0.00,Rainwise IP-100,2013-02-14 09:14:00,
2013-02-14 04:19:00,31.0,23.0,29.32,North,360,3.0,9.0,70,0.00,,,0.00,Rainwise IP-100,2013-02-14 09:19:00,
2013-02-14 04:24:00,31.0,23.0,29.32,NNE,22,6.0,9.0,70,0.00,,,0.00,Rainwise IP-100,2013-02-14 09:24:00,
2013-02-14 04:29:00,31.0,23.0,29.32,NNE,22,5.0,7.0,70,0.00,,,0.00,Rainwise IP-100,2013-02-14 09:29:00,
2013-02-14 04:34:00,31.0,23.0,29.32,North,360,4.0,10.0,70,0.00,,,0.00,Rainwise IP-100,2013-02-14 09:34:00,
2013-02-14 04:39:00,31.0,23.0,29.32,North,360,2.0,9.0,70,0.00,,,0.00,Rainwise IP-100,2013-02-14 09:39:00,
2013-02-14 04:44:00,31.0,23.0,29.32,NE,45,5.0,10.0,70,0.00,,,0.00,Rainwise IP-100,2013-02-14 09:44:00,
2013-02-14 04:49:00,31.0,23.0,29.32,North,360,6.0,7.0,70,0.00,,,0.00,Rainwise IP-100,2013-02-14 09:49:00,
2013-02-14 04:54:00,31.0,23.0,29.32,North,360,3.0,6.0,70,0.00,,,0.00,Rainwise IP-100,2013-02-14 09:54:00,
2013-02-14 04:59:00,31.0,23.0,29.32,NNE,22,4.0,9.0,70,0.00,,,0.00,Rainwise IP-100,2013-02-14 09:59:00,
2013-02-14 05:04:00,31.0,23.0,29.33,NE,45,3.0,9.0,70,0.00,,,0.00,Rainwise IP-100,2013-02-14 10:04:00,
2013-02-14 05:09:00,31.0,23.0,29.33,NE,45,3.0,7.0,70,0.00,,,0.00,Rainwise IP-100,2013-02-14 10:09:00,
2013-02-14 05:14:00,31.0,23.0,29.33,NNE,22,3.0,9.0,70,0.00,,,0.00,Rainwise IP-100,2013-02-14 10:14:00,
2013-02-14 05:19:00,31.0,23.0,29.33,NNE,22,7.0,9.0,70,0.00,,,0.00,Rainwise IP-100,2013-02-14 10:19:00,
2013-02-14 05:24:00,31.0,23.0,29.33,North,360,1.0,10.0,71,0.00,,,0.00,Rainwise IP-100,2013-02-14 10:24:00,
2013-02-14 05:29:00,30.0,23.0,29.33,NE,45,5.0,8.0,71,0.00,,,0.00,Rainwise IP-100,2013-02-14 10:29:00,
2013-02-14 05:34:00,30.0,23.0,29.32,NE,45,7.0,9.0,72,0.00,,,0.00,Rainwise IP-100,2013-02-14 10:34:00,
2013-02-14 05:39:00,30.0,23.0,29.32,NNE,22,2.0,7.0,72,0.00,,,0.00,Rainwise IP-100,2013-02-14 10:39:00,
2013-02-14 05:44:00,30.0,23.0,29.32,North,360,5.0,8.0,72,0.00,,,0.00,Rainwise IP-100,2013-02-14 10:44:00,
2013-02-14 05:49:00,30.0,23.0,29.32,NNE,22,3.0,13.0,70,0.00,,,0.00,Rainwise IP-100,2013-02-14 10:49:00,
2013-02-14 05:54:00,30.0,23.0,29.32,North,360,3.0,10.0,72,0.00,,,0.00,Rainwise IP-100,2013-02-14 10:54:00,
2013-02-14 05:59:00,30.0,23.0,29.32,North,360,5.0,8.0,72,0.00,,,0.00,Rainwise IP-100,2013-02-14 10:59:00,
2013-02-14 06:04:00,30.0,23.0,29.32,NE,45,6.0,8.0,72,0.00,,,0.00,Rainwise IP-100,2013-02-14 11:04:00,
2013-02-14 06:09:00,30.0,23.0,29.32,NNE,22,5.0,8.0,72,0.00,,,0.00,Rainwise IP-100,2013-02-14 11:09:00,
2013-02-14 06:14:00,30.0,23.0,29.33,North,360,5.0,8.0,72,0.00,,,0.00,Rainwise IP-100,2013-02-14 11:14:00,
2013-02-14 06:19:00,29.0,23.0,29.33,North,360,5.0,8.0,73,0.00,,,0.00,Rainwise IP-100,2013-02-14 11:19:00,
2013-02-14 06:24:00,29.0,23.0,29.33,NNE,22,5.0,7.0,73,0.00,,,0.00,Rainwise IP-100,2013-02-14 11:24:00,
2013-02-14 06:29:00,29.0,23.0,29.33,North,360,6.0,8.0,73,0.00,,,0.00,Rainwise IP-100,2013-02-14 11:29:00,
2013-02-14 06:34:00,29.0,23.0,29.33,North,360,4.0,7.0,73,0.00,,,0.00,Rainwise IP-100,2013-02-14 11:34:00,
2013-02-14 06:39:00,29.0,23.0,29.33,NNE,22,3.0,6.0,73,0.00,,,0.00,Rainwise IP-100,2013-02-14 11:39:00,
2013-02-14 06:44:00,29.0,23.0,29.33,North,360,5.0,10.0,73,0.00,,,0.00,Rainwise IP-100,2013-02-14 11:44:00,
2013-02-14 06:49:00,29.0,23.0,29.33,North,360,5.0,10.0,74,0.00,,,0.00,Rainwise IP-100,2013-02-14 11:49:00,
2013-02-14 06:54:00,29.0,23.0,29.33,NNE,22,4.0,8.0,74,0.00,,,0.00,Rainwise IP-100,2013-02-14 11:54:00,
2013-02-14 06:59:00,29.0,23.0,29.33,NE,45,12.0,12.0,73,0.00,,,0.00,Rainwise IP-100,2013-02-14 11:59:00,
2013-02-14 07:04:00,29.0,23.0,29.34,NE,45,5.0,12.0,74,0.00,,,0.00,Rainwise IP-100,2013-02-14 12:04:00,
2013-02-14 07:09:00,29.0,23.0,29.34,North,360,7.0,10.0,74,0.00,,,0.00,Rainwise IP-100,2013-02-14 12:09:00,
2013-02-14 07:14:00,29.0,23.0,29.34,NNE,22,4.0,12.0,74,0.00,,,0.00,Rainwise IP-100,2013-02-14 12:14:00,
2013-02-14 07:18:00,29.0,23.0,29.34,NNE,22,6.0,10.0,75,0.00,,,0.00,Rainwise IP-100,2013-02-14 12:18:00,
2013-02-14 07:23:00,29.0,23.0,29.35,NE,45,5.0,13.0,75,0.00,,,0.00,Rainwise IP-100,2013-02-14 12:23:00,
2013-02-14 07:28:00,29.0,23.0,29.35,NNE,22,6.0,10.0,74,0.00,,,0.00,Rainwise IP-100,2013-02-14 12:28:00,
2013-02-14 07:33:00,29.0,23.0,29.35,NNE,22,7.0,11.0,73,0.00,,,0.00,Rainwise IP-100,2013-02-14 12:33:00,
2013-02-14 07:38:00,29.0,23.0,29.35,North,360,7.0,12.0,73,0.00,,,0.00,Rainwise IP-100,2013-02-14 12:38:00,
2013-02-14 07:43:00,29.0,23.0,29.35,North,360,7.0,13.0,72,0.00,,,0.00,Rainwise IP-100,2013-02-14 12:43:00,
2013-02-14 07:48:00,30.0,23.0,29.35,North,360,9.0,11.0,71,0.00,,,0.00,Rainwise IP-100,2013-02-14 12:48:00,
2013-02-14 07:53:00,30.0,23.0,29.35,NNE,22,7.0,13.0,70,0.00,,,0.00,Rainwise IP-100,2013-02-14 12:53:00,
2013-02-14 07:58:00,30.0,23.0,29.35,North,360,7.0,11.0,70,0.00,,,0.00,Rainwise IP-100,2013-02-14 12:58:00,
2013-02-14 08:03:00,30.0,23.0,29.36,North,360,3.0,11.0,70,0.00,,,0.00,Rainwise IP-100,2013-02-14 13:03:00,
2013-02-14 08:08:00,30.0,23.0,29.36,North,360,4.0,8.0,70,0.00,,,0.00,Rainwise IP-100,2013-02-14 13:08:00,
2013-02-14 08:13:00,30.0,23.0,29.37,North,360,5.0,6.0,72,0.00,,,0.00,Rainwise IP-100,2013-02-14 13:13:00,
2013-02-14 08:18:00,30.0,23.0,29.37,North,360,5.0,7.0,72,0.00,,,0.00,Rainwise IP-100,2013-02-14 13:18:00,
2013-02-14 08:23:00,30.0,23.0,29.36,NE,45,7.0,10.0,72,0.00,,,0.00,Rainwise IP-100,2013-02-14 13:23:00,
2013-02-14 08:28:00,30.0,23.0,29.36,North,360,6.0,7.0,72,0.00,,,0.00,Rainwise IP-100,2013-02-14 13:28:00,
2013-02-14 08:29:00,30.0,23.0,29.36,North,360,6.0,7.0,72,0.00,,,0.00,Rainwise IP-100,2013-02-14 13:29:00,
2013-02-14 08:30:00,30.0,23.0,29.36,North,360,6.0,7.0,72,0.00,,,0.00,Rainwise IP-100,2013-02-14 13:30:00,
2013-02-14 08:34:00,31.0,23.0,29.38,North,360,4.0,6.0,70,0.00,,,0.00,Rainwise IP-100,2013-02-14 13:34:00,
2013-02-14 08:39:00,32.0,23.0,29.38,North,360,6.0,10.0,68,0.00,,,0.00,Rainwise IP-100,2013-02-14 13:39:00,
2013-02-14 08:44:00,33.0,23.0,29.38,NE,45,4.0,10.0,65,0.00,,,0.00,Rainwise IP-100,2013-02-14 13:44:00,
2013-02-14 08:49:00,33.0,23.0,29.38,North,360,6.0,8.0,65,0.00,,,0.00,Rainwise IP-100,2013-02-14 13:49:00,
2013-02-14 08:54:00,33.0,24.0,29.38,North,360,2.0,7.0,66,0.00,,,0.00,Rainwise IP-100,2013-02-14 13:54:00,
2013-02-14 08:59:00,34.0,23.0,29.38,North,360,4.0,9.0,62,0.00,,,0.00,Rainwise IP-100,2013-02-14 13:59:00,
2013-02-14 09:04:00,33.0,23.0,29.39,North,360,5.0,11.0,61,0.00,,,0.00,Rainwise IP-100,2013-02-14 14:04:00,
2013-02-14 09:09:00,33.0,23.0,29.39,North,360,3.0,12.0,61,0.00,,,0.00,Rainwise IP-100,2013-02-14 14:09:00,
2013-02-14 09:14:00,34.0,23.0,29.39,NNE,22,10.0,11.0,61,0.00,,,0.00,Rainwise IP-100,2013-02-14 14:14:00,
2013-02-14 09:19:00,35.0,23.0,29.39,North,360,7.0,10.0,61,0.00,,,0.00,Rainwise IP-100,2013-02-14 14:19:00,
2013-02-14 09:24:00,36.0,23.0,29.39,North,360,5.0,10.0,57,0.00,,,0.00,Rainwise IP-100,2013-02-14 14:24:00,
2013-02-14 09:29:00,36.0,24.0,29.39,North,360,4.0,10.0,61,0.00,,,0.00,Rainwise IP-100,2013-02-14 14:29:00,
2013-02-14 09:34:00,34.0,21.0,29.39,North,360,7.0,10.0,56,0.00,,,0.00,Rainwise IP-100,2013-02-14 14:34:00,
2013-02-14 09:39:00,34.0,23.0,29.39,NE,45,3.0,9.0,59,0.00,,,0.00,Rainwise IP-100,2013-02-14 14:39:00,
2013-02-14 09:44:00,35.0,23.0,29.39,NNE,22,7.0,9.0,60,0.00,,,0.00,Rainwise IP-100,2013-02-14 14:44:00,
2013-02-14 09:49:00,34.0,24.0,29.39,NE,45,3.0,8.0,64,0.00,,,0.00,Rainwise IP-100,2013-02-14 14:49:00,
2013-02-14 09:54:00,36.0,23.0,29.39,North,360,5.0,10.0,59,0.00,,,0.00,Rainwise IP-100,2013-02-14 14:54:00,
2013-02-14 09:59:00,37.0,23.0,29.39,North,360,5.0,10.0,53,0.00,,,0.00,Rainwise IP-100,2013-02-14 14:59:00,
2013-02-14 10:04:00,37.0,24.0,29.40,North,360,3.0,7.0,57,0.00,,,0.00,Rainwise IP-100,2013-02-14 15:04:00,
2013-02-14 10:09:00,38.0,23.0,29.40,NNE,22,6.0,10.0,52,0.00,,,0.00,Rainwise IP-100,2013-02-14 15:09:00,
2013-02-14 10:14:00,36.0,23.0,29.40,North,360,3.0,9.0,58,0.00,,,0.00,Rainwise IP-100,2013-02-14 15:14:00,
2013-02-14 10:19:00,37.0,21.0,29.40,North,360,9.0,9.0,52,0.00,,,0.00,Rainwise IP-100,2013-02-14 15:19:00,
2013-02-14 10:24:00,37.0,23.0,29.40,NNE,22,2.0,9.0,56,0.00,,,0.00,Rainwise IP-100,2013-02-14 15:24:00,
2013-02-14 10:29:00,37.0,21.0,29.40,NE,45,8.0,10.0,48,0.00,,,0.00,Rainwise IP-100,2013-02-14 15:29:00,
2013-02-14 10:34:00,37.0,18.0,29.41,NNE,22,11.0,11.0,47,0.00,,,0.00,Rainwise IP-100,2013-02-14 15:34:00,
2013-02-14 10:39:00,37.0,18.0,29.41,North,360,9.0,14.0,47,0.00,,,0.00,Rainwise IP-100,2013-02-14 15:39:00,
2013-02-14 10:44:00,37.0,18.0,29.41,NE,45,4.0,13.0,46,0.00,,,0.00,Rainwise IP-100,2013-02-14 15:44:00,
2013-02-14 10:49:00,37.0,16.0,29.41,North,360,7.0,11.0,43,0.00,,,0.00,Rainwise IP-100,2013-02-14 15:49:00,
2013-02-14 10:54:00,38.0,21.0,29.41,North,360,9.0,11.0,46,0.00,,,0.00,Rainwise IP-100,2013-02-14 15:54:00,
2013-02-14 10:59:00,38.0,18.0,29.41,North,360,5.0,11.0,44,0.00,,,0.00,Rainwise IP-100,2013-02-14 15:59:00,
2013-02-14 11:04:00,38.0,18.0,29.41,NE,45,8.0,8.0,44,0.00,,,0.00,Rainwise IP-100,2013-02-14 16:04:00,
2013-02-14 11:09:00,38.0,18.0,29.41,North,360,6.0,10.0,44,0.00,,,0.00,Rainwise IP-100,2013-02-14 16:09:00,
2013-02-14 11:14:00,39.0,23.0,29.42,East,90,1.0,13.0,49,0.00,,,0.00,Rainwise IP-100,2013-02-14 16:14:00,
2013-02-14 11:19:00,39.0,18.0,29.42,North,360,6.0,12.0,41,0.00,,,0.00,Rainwise IP-100,2013-02-14 16:19:00,
2013-02-14 11:24:00,39.0,16.0,29.42,ESE,112,2.0,10.0,39,0.00,,,0.00,Rainwise IP-100,2013-02-14 16:24:00,
2013-02-14 11:29:00,39.0,18.0,29.42,NE,45,5.0,9.0,41,0.00,,,0.00,Rainwise IP-100,2013-02-14 16:29:00,
2013-02-14 11:34:00,39.0,16.0,29.42,NE,45,8.0,10.0,39,0.00,,,0.00,Rainwise IP-100,2013-02-14 16:34:00,
2013-02-14 11:39:00,39.0,18.0,29.42,NE,45,3.0,12.0,43,0.00,,,0.00,Rainwise IP-100,2013-02-14 16:39:00,
2013-02-14 11:44:00,39.0,18.0,29.43,North,360,8.0,11.0,40,0.00,,,0.00,Rainwise IP-100,2013-02-14 16:44:00,
2013-02-14 11:49:00,39.0,16.0,29.43,NNE,22,5.0,11.0,39,0.00,,,0.00,Rainwise IP-100,2013-02-14 16:49:00,
2013-02-14 11:54:00,39.0,18.0,29.43,North,360,5.0,12.0,40,0.00,,,0.00,Rainwise IP-100,2013-02-14 16:54:00,
2013-02-14 11:59:00,40.0,23.0,29.43,NNE,22,4.0,9.0,47,0.00,,,0.00,Rainwise IP-100,2013-02-14 16:59:00,
2013-02-14 12:04:00,40.0,18.0,29.43,NNE,22,5.0,10.0,41,0.00,,,0.00,Rainwise IP-100,2013-02-14 17:04:00,
2013-02-14 12:09:00,41.0,24.0,29.43,SW,225,1.0,9.0,49,0.00,,,0.00,Rainwise IP-100,2013-02-14 17:09:00,
2013-02-14 12:14:00,41.0,18.0,29.42,NE,45,7.0,9.0,38,0.00,,,0.00,Rainwise IP-100,2013-02-14 17:14:00,
2013-02-14 12:19:00,39.0,16.0,29.42,North,360,9.0,12.0,39,0.00,,,0.00,Rainwise IP-100,2013-02-14 17:19:00,
2013-02-14 12:24:00,38.0,16.0,29.42,SSE,157,7.0,14.0,41,0.00,,,0.00,Rainwise IP-100,2013-02-14 17:24:00,
2013-02-14 12:29:00,39.0,18.0,29.42,NNE,22,1.0,13.0,40,0.00,,,0.00,Rainwise IP-100,2013-02-14 17:29:00,
2013-02-14 12:34:00,39.0,21.0,29.43,North,360,5.0,7.0,47,0.00,,,0.00,Rainwise IP-100,2013-02-14 17:34:00,
2013-02-14 12:39:00,40.0,18.0,29.43,NE,45,5.0,12.0,39,0.00,,,0.00,Rainwise IP-100,2013-02-14 17:39:00,
2013-02-14 12:44:00,39.0,16.0,29.42,North,360,8.0,13.0,38,0.00,,,0.00,Rainwise IP-100,2013-02-14 17:44:00,
2013-02-14 12:49:00,40.0,21.0,29.42,NE,45,4.0,11.0,45,0.00,,,0.00,Rainwise IP-100,2013-02-14 17:49:00,
2013-02-14 12:54:00,40.0,23.0,29.43,North,360,3.0,7.0,46,0.00,,,0.00,Rainwise IP-100,2013-02-14 17:54:00,
2013-02-14 12:59:00,40.0,18.0,29.43,West,270,8.0,12.0,41,0.00,,,0.00,Rainwise IP-100,2013-02-14 17:59:00,
2013-02-14 13:04:00,40.0,18.0,29.43,West,270,9.0,13.0,41,0.00,,,0.00,Rainwise IP-100,2013-02-14 18:04:00,
2013-02-14 13:09:00,40.0,18.0,29.43,North,360,3.0,10.0,38,0.00,,,0.00,Rainwise IP-100,2013-02-14 18:09:00,
2013-02-14 13:14:00,41.0,21.0,29.43,NE,45,3.0,10.0,44,0.00,,,0.00,Rainwise IP-100,2013-02-14 18:14:00,
2013-02-14 13:19:00,41.0,18.0,29.43,ENE,67,4.0,11.0,39,0.00,,,0.00,Rainwise IP-100,2013-02-14 18:19:00,
2013-02-14 13:22:00,41.0,21.0,29.43,North,360,5.0,11.0,41,0.00,,,0.00,Rainwise IP-100,2013-02-14 18:22:00,
2013-02-14 13:23:00,41.0,21.0,29.43,North,360,12.0,12.0,41,0.00,,,0.00,Rainwise IP-100,2013-02-14 18:23:00,
2013-02-14 13:28:00,40.0,18.0,29.43,NNE,22,4.0,16.0,38,0.00,,,0.00,Rainwise IP-100,2013-02-14 18:28:00,
2013-02-14 13:32:00,41.0,18.0,29.43,West,270,6.0,10.0,39,0.00,,,0.00,Rainwise IP-100,2013-02-14 18:32:00,
2013-02-14 13:37:00,40.0,16.0,29.43,North,360,6.0,15.0,37,0.00,,,0.00,Rainwise IP-100,2013-02-14 18:37:00,
2013-02-14 13:42:00,39.0,16.0,29.43,NNE,22,5.0,15.0,39,0.00,,,0.00,Rainwise IP-100,2013-02-14 18:42:00,
2013-02-14 13:47:00,39.0,16.0,29.43,NE,45,5.0,15.0,39,0.00,,,0.00,Rainwise IP-100,2013-02-14 18:47:00,
2013-02-14 13:48:00,39.0,16.0,29.43,NNE,22,10.0,15.0,39,0.00,,,0.00,Rainwise IP-100,2013-02-14 18:48:00,
2013-02-14 13:53:00,40.0,18.0,29.43,North,360,7.0,11.0,39,0.00,,,0.00,Rainwise IP-100,2013-02-14 18:53:00,
2013-02-14 13:58:00,40.0,18.0,29.43,North,360,4.0,16.0,41,0.00,,,0.00,Rainwise IP-100,2013-02-14 18:58:00,
2013-02-14 14:03:00,41.0,21.0,29.43,NNE,22,7.0,16.0,41,0.00,,,0.00,Rainwise IP-100,2013-02-14 19:03:00,
2013-02-14 14:08:00,41.0,18.0,29.43,North,360,7.0,9.0,37,0.00,,,0.00,Rainwise IP-100,2013-02-14 19:08:00,
2013-02-14 14:13:00,41.0,18.0,29.44,North,360,3.0,9.0,37,0.00,,,0.00,Rainwise IP-100,2013-02-14 19:13:00,
2013-02-14 14:18:00,41.0,18.0,29.44,North,360,5.0,10.0,37,0.00,,,0.00,Rainwise IP-100,2013-02-14 19:18:00,
2013-02-14 14:23:00,40.0,18.0,29.44,North,360,1.0,13.0,39,0.00,,,0.00,Rainwise IP-100,2013-02-14 19:23:00,
2013-02-14 14:28:00,40.0,18.0,29.44,North,360,7.0,13.0,39,0.00,,,0.00,Rainwise IP-100,2013-02-14 19:28:00,
2013-02-14 14:33:00,40.0,18.0,29.45,NNE,22,3.0,10.0,39,0.00,,,0.00,Rainwise IP-100,2013-02-14 19:33:00,
2013-02-14 14:38:00,40.0,18.0,29.45,North,360,4.0,10.0,40,0.00,,,0.00,Rainwise IP-100,2013-02-14 19:38:00,
2013-02-14 14:43:00,40.0,18.0,29.45,NE,45,9.0,14.0,39,0.00,,,0.00,Rainwise IP-100,2013-02-14 19:43:00,
2013-02-14 14:48:00,40.0,18.0,29.45,NNE,22,4.0,11.0,39,0.00,,,0.00,Rainwise IP-100,2013-02-14 19:48:00,
2013-02-14 14:53:00,40.0,18.0,29.45,NE,45,5.0,10.0,38,0.00,,,0.00,Rainwise IP-100,2013-02-14 19:53:00,
2013-02-14 14:58:00,40.0,18.0,29.45,North,360,4.0,10.0,38,0.00,,,0.00,Rainwise IP-100,2013-02-14 19:58:00,
2013-02-14 15:03:00,40.0,21.0,29.46,NE,45,5.0,9.0,42,0.00,,,0.00,Rainwise IP-100,2013-02-14 20:03:00,
2013-02-14 15:08:00,40.0,18.0,29.46,North,360,5.0,13.0,38,0.00,,,0.00,Rainwise IP-100,2013-02-14 20:08:00,
2013-02-14 15:13:00,41.0,21.0,29.46,NE,45,0.0,9.0,44,0.00,,,0.00,Rainwise IP-100,2013-02-14 20:13:00,
2013-02-14 15:18:00,40.0,16.0,29.46,NNE,22,9.0,10.0,35,0.00,,,0.00,Rainwise IP-100,2013-02-14 20:18:00,
2013-02-14 15:20:00,40.0,21.0,29.46,West,270,3.0,10.0,45,0.00,,,0.00,Rainwise IP-100,2013-02-14 20:20:00,
2013-02-14 15:25:00,40.0,16.0,29.47,NE,45,5.0,10.0,37,0.00,,,0.00,Rainwise IP-100,2013-02-14 20:25:00,
2013-02-14 15:30:00,40.0,16.0,29.47,NNE,22,3.0,8.0,37,0.00,,,0.00,Rainwise IP-100,2013-02-14 20:30:00,
2013-02-14 15:35:00,40.0,16.0,29.47,North,360,8.0,10.0,37,0.00,,,0.00,Rainwise IP-100,2013-02-14 20:35:00,
2013-02-14 15:40:00,40.0,16.0,29.47,West,270,8.0,11.0,37,0.00,,,0.00,Rainwise IP-100,2013-02-14 20:40:00,
2013-02-14 15:45:00,40.0,16.0,29.47,NNE,22,5.0,15.0,37,0.00,,,0.00,Rainwise IP-100,2013-02-14 20:45:00,
2013-02-14 15:50:00,39.0,16.0,29.47,North,360,8.0,13.0,37,0.00,,,0.00,Rainwise IP-100,2013-02-14 20:50:00,
2013-02-14 15:55:00,39.0,16.0,29.47,NE,45,6.0,13.0,38,0.00,,,0.00,Rainwise IP-100,2013-02-14 20:55:00,
2013-02-14 16:00:00,39.0,21.0,29.47,NE,45,1.0,9.0,44,0.00,,,0.00,Rainwise IP-100,2013-02-14 21:00:00,
2013-02-14 16:05:00,39.0,21.0,29.47,NE,45,6.0,6.0,46,0.00,,,0.00,Rainwise IP-100,2013-02-14 21:05:00,
2013-02-14 16:10:00,39.0,16.0,29.47,NE,45,4.0,7.0,38,0.00,,,0.00,Rainwise IP-100,2013-02-14 21:10:00,
2013-02-14 16:15:00,38.0,16.0,29.47,NNE,22,3.0,9.0,38,0.00,,,0.00,Rainwise IP-100,2013-02-14 21:15:00,
2013-02-14 16:20:00,39.0,21.0,29.47,North,360,3.0,7.0,46,0.00,,,0.00,Rainwise IP-100,2013-02-14 21:20:00,
2013-02-14 16:25:00,39.0,16.0,29.47,NNE,22,4.0,7.0,38,0.00,,,0.00,Rainwise IP-100,2013-02-14 21:25:00,
2013-02-14 16:30:00,39.0,21.0,29.47,North,360,0.0,6.0,45,0.00,,,0.00,Rainwise IP-100,2013-02-14 21:30:00,
2013-02-14 16:35:00,38.0,16.0,29.47,NE,45,8.0,10.0,39,0.00,,,0.00,Rainwise IP-100,2013-02-14 21:35:00,
2013-02-14 16:40:00,38.0,16.0,29.47,NE,45,5.0,8.0,39,0.00,,,0.00,Rainwise IP-100,2013-02-14 21:40:00,
2013-02-14 16:45:00,37.0,16.0,29.47,NE,45,3.0,7.0,42,0.00,,,0.00,Rainwise IP-100,2013-02-14 21:45:00,
2013-02-14 16:50:00,37.0,16.0,29.47,NNE,22,6.0,7.0,41,0.00,,,0.00,Rainwise IP-100,2013-02-14 21:50:00,
2013-02-14 16:55:00,36.0,16.0,29.48,NNE,22,4.0,7.0,41,0.00,,,0.00,Rainwise IP-100,2013-02-14 21:55:00,
2013-02-14 17:00:00,36.0,16.0,29.48,NE,45,3.0,5.0,42,0.00,,,0.00,Rainwise IP-100,2013-02-14 22:00:00,
2013-02-14 17:05:00,35.0,14.0,29.48,North,360,3.0,6.0,42,0.00,,,0.00,Rainwise IP-100,2013-02-14 22:05:00,
2013-02-14 17:10:00,35.0,16.0,29.48,NNE,22,2.0,5.0,43,0.00,,,0.00,Rainwise IP-100,2013-02-14 22:10:00,
2013-02-14 17:15:00,34.0,16.0,29.48,North,360,0.0,5.0,44,0.00,,,0.00,Rainwise IP-100,2013-02-14 22:15:00,
2013-02-14 17:20:00,33.0,16.0,29.48,North,360,0.0,1.0,46,0.00,,,0.00,Rainwise IP-100,2013-02-14 22:20:00,
2013-02-14 17:25:00,32.0,18.0,29.48,North,360,1.0,2.0,53,0.00,,,0.00,Rainwise IP-100,2013-02-14 22:25:00,
2013-02-14 17:30:00,31.0,16.0,29.48,North,360,0.0,1.0,55,0.00,,,0.00,Rainwise IP-100,2013-02-14 22:30:00,
2013-02-14 17:35:00,31.0,18.0,29.49,North,360,2.0,3.0,57,0.00,,,0.00,Rainwise IP-100,2013-02-14 22:35:00,
2013-02-14 17:40:00,30.0,18.0,29.49,North,360,2.0,2.0,58,0.00,,,0.00,Rainwise IP-100,2013-02-14 22:40:00,
2013-02-14 17:45:00,29.0,16.0,29.49,North,360,1.0,3.0,58,0.00,,,0.00,Rainwise IP-100,2013-02-14 22:45:00,
2013-02-14 17:50:00,28.0,16.0,29.49,North,360,0.0,2.0,61,0.00,,,0.00,Rainwise IP-100,2013-02-14 22:50:00,
2013-02-14 17:55:00,28.0,16.0,29.49,North,360,1.0,2.0,62,0.00,,,0.00,Rainwise IP-100,2013-02-14 22:55:00,
2013-02-14 18:00:00,27.0,18.0,29.49,North,360,0.0,1.0,65,0.00,,,0.00,Rainwise IP-100,2013-02-14 23:00:00,
2013-02-14 18:05:00,26.0,16.0,29.49,North,360,0.0,2.0,66,0.00,,,0.00,Rainwise IP-100,2013-02-14 23:05:00,
2013-02-14 18:10:00,26.0,18.0,29.49,North,360,1.0,2.0,68,0.00,,,0.00,Rainwise IP-100,2013-02-14 23:10:00,
2013-02-14 18:15:00,26.0,18.0,29.49,North,360,1.0,2.0,70,0.00,,,0.00,Rainwise IP-100,2013-02-14 23:15:00,
2013-02-14 18:20:00,26.0,18.0,29.49,North,360,1.0,2.0,69,0.00,,,0.00,Rainwise IP-100,2013-02-14 23:20:00,
2013-02-14 18:25:00,25.0,18.0,29.49,North,360,0.0,2.0,69,0.00,,,0.00,Rainwise IP-100,2013-02-14 23:25:00,
2013-02-14 18:30:00,25.0,18.0,29.49,North,360,0.0,0.0,71,0.00,,,0.00,Rainwise IP-100,2013-02-14 23:30:00,
2013-02-14 18:35:00,24.0,16.0,29.49,North,360,0.0,0.0,72,0.00,,,0.00,Rainwise IP-100,2013-02-14 23:35:00,
2013-02-14 18:40:00,24.0,16.0,29.49,North,360,1.0,3.0,73,0.00,,,0.00,Rainwise IP-100,2013-02-14 23:40:00,
2013-02-14 18:45:00,23.0,16.0,29.49,North,360,0.0,2.0,76,0.00,,,0.00,Rainwise IP-100,2013-02-14 23:45:00,
2013-02-14 18:50:00,24.0,18.0,29.49,West,270,3.0,4.0,78,0.00,,,0.00,Rainwise IP-100,2013-02-14 23:50:00,
2013-02-14 18:55:00,24.0,18.0,29.50,North,360,3.0,5.0,78,0.00,,,0.00,Rainwise IP-100,2013-02-14 23:55:00,
2013-02-14 19:00:00,24.0,18.0,29.50,North,360,3.0,4.0,78,0.00,,,0.00,Rainwise IP-100,2013-02-15 00:00:00,
2013-02-14 19:05:00,25.0,21.0,29.51,North,360,3.0,4.0,78,0.00,,,0.00,Rainwise IP-100,2013-02-15 00:05:00,
2013-02-14 19:10:00,25.0,21.0,29.51,North,360,4.0,4.0,77,0.00,,,0.00,Rainwise IP-100,2013-02-15 00:10:00,
2013-02-14 19:15:00,25.0,21.0,29.52,North,360,3.0,5.0,76,0.00,,,0.00,Rainwise IP-100,2013-02-15 00:15:00,
2013-02-14 19:20:00,25.0,21.0,29.52,North,360,4.0,4.0,75,0.00,,,0.00,Rainwise IP-100,2013-02-15 00:20:00,
2013-02-14 19:25:00,25.0,18.0,29.53,North,360,3.0,4.0,74,0.00,,,0.00,Rainwise IP-100,2013-02-15 00:25:00,
2013-02-14 19:30:00,26.0,18.0,29.53,North,360,3.0,4.0,74,0.00,,,0.00,Rainwise IP-100,2013-02-15 00:30:00,
2013-02-14 19:35:00,25.0,18.0,29.53,North,360,3.0,4.0,74,0.00,,,0.00,Rainwise IP-100,2013-02-15 00:35:00,
2013-02-14 19:40:00,25.0,18.0,29.53,North,360,2.0,3.0,74,0.00,,,0.00,Rainwise IP-100,2013-02-15 00:40:00,
2013-02-14 19:45:00,25.0,21.0,29.53,North,360,3.0,3.0,75,0.00,,,0.00,Rainwise IP-100,2013-02-15 00:45:00,
2013-02-14 19:50:00,25.0,21.0,29.53,North,360,3.0,4.0,76,0.00,,,0.00,Rainwise IP-100,2013-02-15 00:50:00,
2013-02-14 19:55:00,25.0,21.0,29.53,North,360,3.0,4.0,77,0.00,,,0.00,Rainwise IP-100,2013-02-15 00:55:00,
2013-02-14 20:00:00,25.0,21.0,29.53,North,360,2.0,4.0,78,0.00,,,0.00,Rainwise IP-100,2013-02-15 01:00:00,
2013-02-14 20:05:00,25.0,21.0,29.53,North,360,3.0,3.0,79,0.00,,,0.00,Rainwise IP-100,2013-02-15 01:05:00,
2013-02-14 20:10:00,25.0,21.0,29.53,North,360,2.0,3.0,79,0.00,,,0.00,Rainwise IP-100,2013-02-15 01:10:00,
2013-02-14 20:15:00,24.0,18.0,29.53,North,360,3.0,3.0,79,0.00,,,0.00,Rainwise IP-100,2013-02-15 01:15:00,
2013-02-14 20:20:00,24.0,21.0,29.53,North,360,2.0,3.0,81,0.00,,,0.00,Rainwise IP-100,2013-02-15 01:20:00,
2013-02-14 20:25:00,24.0,21.0,29.53,North,360,3.0,3.0,82,0.00,,,0.00,Rainwise IP-100,2013-02-15 01:25:00,
2013-02-14 20:30:00,24.0,21.0,29.53,North,360,3.0,3.0,83,0.00,,,0.00,Rainwise IP-100,2013-02-15 01:30:00,
2013-02-14 20:35:00,24.0,21.0,29.52,North,360,3.0,3.0,83,0.00,,,0.00,Rainwise IP-100,2013-02-15 01:35:00,
2013-02-14 20:40:00,24.0,21.0,29.52,North,360,2.0,3.0,83,0.00,,,0.00,Rainwise IP-100,2013-02-15 01:40:00,
2013-02-14 20:45:00,24.0,21.0,29.53,North,360,2.0,3.0,83,0.00,,,0.00,Rainwise IP-100,2013-02-15 01:45:00,
2013-02-14 20:50:00,23.0,18.0,29.53,North,360,3.0,3.0,85,0.00,,,0.00,Rainwise IP-100,2013-02-15 01:50:00,
2013-02-14 20:55:00,23.0,18.0,29.52,West,270,3.0,5.0,87,0.00,,,0.00,Rainwise IP-100,2013-02-15 01:55:00,
2013-02-14 21:00:00,24.0,21.0,29.52,West,270,2.0,4.0,85,0.00,,,0.00,Rainwise IP-100,2013-02-15 02:00:00,
2013-02-14 21:05:00,24.0,21.0,29.52,West,270,3.0,4.0,85,0.00,,,0.00,Rainwise IP-100,2013-02-15 02:05:00,
2013-02-14 21:10:00,23.0,18.0,29.52,West,270,2.0,3.0,86,0.00,,,0.00,Rainwise IP-100,2013-02-15 02:10:00,
2013-02-14 21:15:00,23.0,18.0,29.52,West,270,3.0,3.0,87,0.00,,,0.00,Rainwise IP-100,2013-02-15 02:15:00,
2013-02-14 21:20:00,22.0,21.0,29.52,West,270,4.0,4.0,89,0.00,,,0.00,Rainwise IP-100,2013-02-15 02:20:00,
2013-02-14 21:25:00,22.0,21.0,29.51,West,270,1.0,4.0,89,0.00,,,0.00,Rainwise IP-100,2013-02-15 02:25:00,
2013-02-14 21:30:00,22.0,21.0,29.51,West,270,2.0,3.0,88,0.00,,,0.00,Rainwise IP-100,2013-02-15 02:30:00,
2013-02-14 21:35:00,22.0,21.0,29.51,West,270,3.0,3.0,90,0.00,,,0.00,Rainwise IP-100,2013-02-15 02:35:00,
2013-02-14 21:40:00,22.0,21.0,29.51,North,360,2.0,4.0,90,0.00,,,0.00,Rainwise IP-100,2013-02-15 02:40:00,
2013-02-14 21:45:00,22.0,21.0,29.51,North,360,2.0,3.0,89,0.00,,,0.00,Rainwise IP-100,2013-02-15 02:45:00,
2013-02-14 21:50:00,22.0,21.0,29.51,West,270,3.0,3.0,90,0.00,,,0.00,Rainwise IP-100,2013-02-15 02:50:00,
2013-02-14 21:55:00,22.0,21.0,29.51,West,270,2.0,3.0,90,0.00,,,0.00,Rainwise IP-100,2013-02-15 02:55:00,
2013-02-14 22:00:00,22.0,21.0,29.51,West,270,0.0,3.0,90,0.00,,,0.00,Rainwise IP-100,2013-02-15 03:00:00,
2013-02-14 22:02:00,21.0,18.0,29.51,West,270,0.0,2.0,90,0.00,,,0.00,Rainwise IP-100,2013-02-15 03:02:00,
2013-02-14 22:07:00,21.0,18.0,29.51,West,270,3.0,4.0,91,0.00,,,0.00,Rainwise IP-100,2013-02-15 03:07:00,
2013-02-14 22:12:00,21.0,18.0,29.51,North,360,4.0,4.0,92,0.00,,,0.00,Rainwise IP-100,2013-02-15 03:12:00,
2013-02-14 22:17:00,22.0,21.0,29.51,North,360,1.0,4.0,91,0.00,,,0.00,Rainwise IP-100,2013-02-15 03:17:00,
2013-02-14 22:22:00,22.0,21.0,29.51,West,270,3.0,4.0,90,0.00,,,0.00,Rainwise IP-100,2013-02-15 03:22:00,
2013-02-14 22:27:00,23.0,21.0,29.51,West,270,2.0,4.0,89,0.00,,,0.00,Rainwise IP-100,2013-02-15 03:27:00,
2013-02-14 22:32:00,23.0,18.0,29.52,West,270,2.0,3.0,87,0.00,,,0.00,Rainwise IP-100,2013-02-15 03:32:00,
2013-02-14 22:37:00,22.0,18.0,29.52,SE,135,3.0,3.0,87,0.00,,,0.00,Rainwise IP-100,2013-02-15 03:37:00,
2013-02-14 22:42:00,22.0,21.0,29.52,SE,135,0.0,3.0,89,0.00,,,0.00,Rainwise IP-100,2013-02-15 03:42:00,
2013-02-14 22:47:00,22.0,21.0,29.52,SE,135,0.0,1.0,89,0.00,,,0.00,Rainwise IP-100,2013-02-15 03:47:00,
2013-02-14 22:52:00,22.0,21.0,29.52,SE,135,0.0,0.0,90,0.00,,,0.00,Rainwise IP-100,2013-02-15 03:52:00,
2013-02-14 22:57:00,22.0,21.0,29.52,NNE,22,2.0,0.0,90,0.00,,,0.00,Rainwise IP-100,2013-02-15 03:57:00,
2013-02-14 23:02:00,22.0,21.0,29.53,North,360,3.0,3.0,90,0.00,,,0.00,Rainwise IP-100,2013-02-15 04:02:00,
2013-02-14 23:07:00,22.0,21.0,29.53,North,360,3.0,5.0,89,0.00,,,0.00,Rainwise IP-100,2013-02-15 04:07:00,
2013-02-14 23:12:00,22.0,21.0,29.53,North,360,3.0,3.0,89,0.00,,,0.00,Rainwise IP-100,2013-02-15 04:12:00,
2013-02-14 23:17:00,22.0,21.0,29.53,North,360,2.0,3.0,90,0.00,,,0.00,Rainwise IP-100,2013-02-15 04:17:00,
2013-02-14 23:22:00,22.0,21.0,29.52,North,360,1.0,2.0,91,0.00,,,0.00,Rainwise IP-100,2013-02-15 04:22:00,
2013-02-14 23:27:00,22.0,21.0,29.52,North,360,1.0,2.0,91,0.00,,,0.00,Rainwise IP-100,2013-02-15 04:27:00,
2013-02-14 23:32:00,22.0,21.0,29.53,North,360,0.0,3.0,92,0.00,,,0.00,Rainwise IP-100,2013-02-15 04:32:00,
2013-02-14 23:37:00,22.0,21.0,29.53,North,360,3.0,3.0,94,0.00,,,0.00,Rainwise IP-100,2013-02-15 04:37:00,
2013-02-14 23:42:00,22.0,21.0,29.53,North,360,3.0,4.0,94,0.00,,,0.00,Rainwise IP-100,2013-02-15 04:42:00,
2013-02-14 23:47:00,22.0,21.0,29.53,North,360,3.0,4.0,93,0.00,,,0.00,Rainwise IP-100,2013-02-15 04:47:00,
2013-02-14 23:52:00,22.0,21.0,29.53,North,360,3.0,4.0,93,0.00,,,0.00,Rainwise IP-100,2013-02-15 04:52:00,
2013-02-14 23:57:00,21.0,18.0,29.53,North,360,2.0,3.0,95,0.00,,,0.00,Rainwise IP-100,2013-02-15 04:57:00,